This is the latest recevied weather packets stored in our database for station/object KB4NWJ. If no packets are shown the sender has not sent any weather packets the latest 10 day(s).
| Time | Temp. | Humidity | Pressure | Rain* | Wind** | Luminosity | Snow |
|---|---|---|---|---|---|---|---|
| 1777839237 | 20.56° C | 38% | 1019.5 hPa | 0 mm | - | 556 W/m² | - |
| 1777838935 | 21.11° C | 39% | 1019.5 hPa | 0 mm | - | 557 W/m² | - |
| 1777838630 | 20° C | 42% | 1019.4 hPa | 0 mm | - | 577 W/m² | - |
| 1777838328 | 21.11° C | 41% | 1019.4 hPa | 0 mm | - | 549 W/m² | - |
| 1777838024 | 20.56° C | 45% | 1019.5 hPa | 0 mm | - | 580 W/m² | - |
| 1777837722 | 21.67° C | 40% | 1019.7 hPa | 0 mm | - | 608 W/m² | - |
| 1777837417 | 21.67° C | 46% | 1019.8 hPa | 0 mm | - | 617 W/m² | - |
| 1777837114 | 20.56° C | 44% | 1019.7 hPa | 0 mm | - | 614 W/m² | - |
| 1777836810 | 20.56° C | 41% | 1019.9 hPa | 0 mm | - | 606 W/m² | - |
| 1777836506 | 20.56° C | 42% | 1020 hPa | 0 mm | - | 606 W/m² | - |
| 1777836201 | 20.56° C | 43% | 1020.2 hPa | 0 mm | - | 544 W/m² | - |
| 1777835898 | 20° C | 46% | 1020.2 hPa | 0 mm | - | 475 W/m² | - |
| 1777835595 | 20° C | 47% | 1020.4 hPa | 0 mm | - | 582 W/m² | - |
| 1777835292 | 20.56° C | 42% | 1020.4 hPa | 0 mm | - | 646 W/m² | - |
| 1777834989 | 20° C | 46% | 1020.5 hPa | 0 mm | - | 640 W/m² | - |
| 1777834686 | 20.56° C | 46% | 1020.5 hPa | 0 mm | - | 670 W/m² | - |
| 1777834382 | 20° C | 44% | 1020.5 hPa | 0 mm | - | 702 W/m² | - |
| 1777834081 | 20° C | 44% | 1020.6 hPa | 0 mm | - | 680 W/m² | - |
| 1777833778 | 20.56° C | 44% | 1020.7 hPa | 0 mm | - | 658 W/m² | - |
| 1777833474 | 20° C | 46% | 1020.8 hPa | 0 mm | - | 641 W/m² | - |
| 1777833172 | 20° C | 43% | 1020.6 hPa | 0 mm | - | 665 W/m² | - |
| 1777832869 | 20° C | 42% | 1020.7 hPa | 0 mm | - | 691 W/m² | - |
| 1777832568 | 19.44° C | 47% | 1021 hPa | 0 mm | - | 713 W/m² | - |
| 1777832264 | 19.44° C | 43% | 1021 hPa | 0 mm | - | 736 W/m² | - |
| 1777831962 | 19.44° C | 46% | 1021.2 hPa | 0 mm | - | 737 W/m² | - |
* Rain latest hour (hover to see other rain measurements)
** Current wind speed in m/s (hover to see current wind gust speed)